User: anonymous   Login
Location: Newark
(48.6461°N, 4.3644°W)
Time: 13:41:12
(UTC+00:00)
Language:

STARLINK-1034 - Orbit

View from above orbital plane
View from above orbital plane
View from above satellite
View from above satellite

Ground track
Ground track

The orbit data is extracted from the following two-line orbital elements,

1 44757C 19074AW  20053.52705617  .00004768  00000-0  32645-3 0   530
2 44757  52.9987  34.9541 0002040  55.1506 205.7141 15.05589918    15
Epoch (UTC): 22 February 2020 12:38:57
Eccentricity: 0.0002040
inclination: 52.9987°
perigee height: 548 km
apogee height: 551 km
right ascension of ascending node: 34.9541°
argument of perigee: 55.1506°
revolutions per day: 15.05589918
mean anomaly at epoch: 205.7141°
orbit number at epoch: 1

The dashed part of the orbit path shows where the satellite is in the earth's shadow,  

DLR